Location: Bouchavesnes-Bergen
(49.9859°N, 2.9203°E)
Time: 17:08:43
(UTC+00:00)

NOAA 16 DEB - Pass Details

Date: 03 October 2021
Orbit: 798 x 841 km, 98.8° (Epoch: 21 October)

Event Time Altitude Azimuth Distance (km) Brightness Sun altitude
Exits shadow 22:28:55 16° 354° (N) 2,010 ? -42.1°
Drops below altitude 10° 22:29:54 10° 351° (N) 2,385 ? -42.2°
Sets 22:32:15 0° 348° (NNW) 3,319 ? -42.3°
